This demonstration page uses our WeatherBlox Daily Observations layout. Learn more.

Left ArrowRight Arrow

38.89511, -77.03637

Hourly Observations for November 5, 2015

Temp ( °F °C ) Dew Point ( °F °C ) Humidity (%) Winds ( mph kmh ) Pressure ( in mb ) Visibility ( mi km ) Precip ( " mm )
12:18 am 00:18 Cloudy with Light Rain 61 16 57 14 88 88 SSE 6 9 30.30 1026 7 11 N/A
12:25 am 00:25 Cloudy with Light Rain 59 15 57 13.9 93 93 SE 5 7 30.30 1026 4 6 0.01 0.25
12:39 am 00:39 Cloudy with Rain 59 15 58 14.4 96 96 N N/A 30.30 1026 3 4 0.03 0.76
12:52 am 00:52 Cloudy with Rain 59 15 58 14.4 96 96 N N/A 30.30 1026 3 4 0.06 1.52
1:05 am 01:05 Cloudy with Light Rain 58 14.4 57 13.9 97 97 E 3 6 30.30 1026 3 4 0.03 0.76
1:14 am 01:14 Cloudy with Light Rain 57 14 57 14 100 100 NE 3 6 30.30 1026 4 6 N/A
1:37 am 01:37 Cloudy with Mist and Fog 59 15 57 13.9 93 93 N N/A 30.30 1026 5 8 0.04 1.02
1:44 am 01:44 Cloudy with Light Rain 57 14 57 14 100 100 NE 5 7 30.30 1026 2 3 N/A
1:52 am 01:52 Cloudy with Light Rain 58 14.4 57 13.9 97 97 NE 5 7 30.30 1026 2 3 0.05 1.27
1:57 am 01:57 Cloudy with Light Rain 58 14.4 57 13.9 97 97 NE 3 6 30.30 1026 2 3 N/A
2:08 am 02:08 Cloudy with Mist and Fog 57 14 57 14 100 100 NE 3 6 30.30 1026 3 4 N/A
2:38 am 02:38 Cloudy with Drizzle 57 14 57 14 100 100 ENE 6 9 30.30 1026 2 3 N/A
2:52 am 02:52 Cloudy with Drizzle 58 14.4 58 14.4 100 100 NE 5 7 30.29 1026 2 2 0.02 0.51
3:33 am 03:33 Cloudy with Drizzle 58 14.4 58 14.4 100 100 NE 3 6 30.27 1025 1 2 0.01 0.25
3:49 am 03:49 Cloudy with Drizzle 57 14 57 14 100 100 ENE 3 6 30.27 1025 2 3 0.02 0.51
3:52 am 03:52 Cloudy with Drizzle 58 14.4 57 13.9 97 97 ENE 3 6 30.27 1025 2 3 0.02 0.51
4:15 am 04:15 Cloudy with Mist and Fog 57 14 57 14 100 100 ENE 3 6 30.27 1025 4 6 N/A
4:34 am 04:34 Cloudy with Mist and Fog 57 14 57 14 100 100 ENE 3 6 30.27 1025 4 6 N/A
4:52 am 04:52 Cloudy with Mist and Fog 58 14.4 57 13.9 97 97 NE 6 9 30.27 1025 5 8 N/A
5:00 am 05:00 Cloudy with Mist and Fog 57 14 57 14 100 100 ENE 6 9 30.27 1025 4 6 N/A
5:08 am 05:08 Cloudy with Mist and Fog 57 14 57 14 100 100 NE 5 7 30.27 1025 4 6 N/A
5:18 am 05:18 Cloudy with Mist and Fog 59 15 57 14 94 94 N 3 6 30.27 1025 4 6 N/A
5:52 am 05:52 Cloudy with Mist and Fog 59 15 58 14.4 96 96 N N/A 30.28 1025 5 8 N/A
6:52 am 06:52 Cloudy with Mist and Fog 59 15 58 14.4 96 96 E 3 6 30.28 1026 5 8 N/A
7:00 am 07:00 Cloudy with Mist and Fog 59 15 57 14 94 94 E 5 7 30.30 1026 3 5 N/A
7:52 am 07:52 Cloudy with Mist and Fog 60 15.6 59 15 96 96 N N/A 30.30 1026 4 6 N/A
8:48 am 08:48 Cloudy with Mist and Fog 61 16 59 15 94 94 SE 3 6 30.30 1026 2 3 N/A
8:52 am 08:52 Cloudy with Mist and Fog 60 15.6 59 15 96 96 SE 3 6 30.30 1026 2 3 N/A
8:57 am 08:57 Cloudy with Mist and Fog 61 16.1 60 15.6 97 97 S 3 6 30.30 1026 1 2 N/A
9:06 am 09:06 Cloudy with Mist and Fog 61 16 61 16 100 100 SSE 3 6 30.30 1026 1 1 N/A
9:18 am 09:18 Cloudy with Fog 61 16 61 16 100 100 SE 3 6 30.30 1026 1 1 N/A
9:35 am 09:35 Cloudy with Fog 61 16.1 61 16.1 100 100 N N/A 30.30 1026 1 1 N/A
9:42 am 09:42 Cloudy with Mist and Fog 61 16 61 16 100 100 N N/A 30.30 1026 1 2 N/A
9:52 am 09:52 Cloudy with Mist and Fog 62 16.7 61 16.1 96 96 N N/A 30.28 1026 2 2 N/A
10:10 am 10:10 Cloudy with Mist and Fog 63 17 61 16 94 94 N N/A 30.30 1026 2 3 N/A
10:23 am 10:23 Cloudy with Mist and Fog 62 16.7 61 16.1 96 96 SSW 3 6 30.30 1026 3 5 N/A
10:52 am 10:52 Cloudy with Mist and Fog 63 17.2 61 16.1 93 93 S 5 7 30.28 1025 3 5 N/A
11:00 am 11:00 Cloudy with Mist and Fog 63 17 61 16 94 94 S 7 11 30.27 1025 4 6 N/A
11:52 am 11:52 Cloudy with Mist and Fog 63 17.2 61 16.1 93 93 S 8 13 30.25 1024 6 10 N/A
12:41 pm 12:41 Cloudy 64 17.8 61 16.1 90 90 S 5 7 30.24 1024 7 11 N/A
12:52 pm 12:52 Cloudy 64 17.8 62 16.7 93 93 S 5 7 30.23 1024 7 11 N/A
1:20 pm 13:20 Partly Cloudy 66 19 63 17 88 88 S 7 11 30.21 1023 10 16 N/A
1:52 pm 13:52 Partly Cloudy 69 20.6 64 17.8 84 84 S 6 9 30.20 1023 10 16 N/A
2:52 pm 14:52 Partly Cloudy 70 21.1 64 17.8 82 82 N N/A 30.18 1022 10 16 N/A
3:52 pm 15:52 Mostly Sunny 70 21.1 64 17.8 82 82 S 3 6 30.16 1021 10 16 N/A
4:52 pm 16:52 Mostly Sunny 68 20 63 17.2 84 84 S 7 11 30.16 1021 10 16 N/A
5:52 pm 17:52 Mostly Clear 65 18.3 62 16.7 90 90 S 7 11 30.17 1022 10 16 N/A
6:52 pm 18:52 Mostly Clear 65 18.3 62 16.7 90 90 S 5 7 30.18 1022 10 16 N/A
7:52 pm 19:52 Mostly Clear 63 17.2 62 16.7 97 97 S 3 6 30.17 1022 10 16 N/A
8:45 pm 20:45 Mostly Clear 62 16.7 61 16.1 96 96 N N/A 30.18 1022 10 16 N/A
8:52 pm 20:52 Mostly Clear 63 17.2 63 17.2 100 100 N N/A 30.17 1022 8 13 N/A
9:04 pm 21:04 Partly Cloudy 63 17 63 17 100 100 N N/A 30.18 1022 8 13 N/A
9:52 pm 21:52 Partly Cloudy 63 17.2 63 17.2 100 100 S 6 9 30.16 1021 7 11 N/A
10:17 pm 22:17 Mostly Cloudy with Mist and Fog 61 16.1 61 16.1 100 100 S 8 13 30.15 1021 2 3 N/A
10:28 pm 22:28 Partly Cloudy with Mist and Fog 64 18 63 17 94 94 S 8 13 30.15 1021 4 6 N/A
10:37 pm 22:37 Mostly Cloudy with Mist and Fog 64 17.8 64 17.8 100 100 S 7 11 30.15 1021 4 6 N/A
10:52 pm 22:52 Mostly Cloudy with Mist and Fog 64 17.8 64 17.8 100 100 S 6 9 30.14 1021 6 10 N/A
11:14 pm 23:14 Partly Cloudy with Mist and Fog 64 18 63 17 94 94 S 6 9 30.15 1021 4 6 N/A
11:52 pm 23:52 Mostly Clear with Mist and Fog 63 17.2 62 16.7 97 97 SW 3 6 30.13 1020 5 8 N/A

Powered by AerisWeather